OBJECT M, 57177

Orbit data source: Space-Track

You're viewing an uncataloged RSO

Recently launched and/or uncataloged RSOs may have evolving metadata. Metadata may include the following, but is not limited to: Owner, Manufacturer, Bus, Motor, and Mission.

OBJECT M, 57177 is a satellite in SSO that was launched on Tue, 27 Jun 2023 UTC via a SOYUZ-2-1B launch vehicle from the Vostochny Cosmodrome (VOSTO). Unknown objects in Earth's orbit typically refer to objects detected orbiting the Earth but have not yet been identified or cataloged. These objects could be anything from previously untracked satellites, spent rocket stages, debris from satellite collisions, or even natural meteoroids temporarily captured by Earth's gravity.

Loading next visibility...
Identifier
57177, 2023-091M
Orbit
SSO
Country
Flag of TBDTBD
Related business
Manufacturer
Sputniks
Mission
Operational Commercial Imaging
Bus & Motor
CUBESAT 12U, Unknown motor
Mass
20 kg wet, 20 kg dry
Launch date (UTC)
2023-06-27 (3 years ago)
Launch vehicle
SOYUZ-2-1B
Launch site
Vostochny Cosmodrome (VOSTO)
Object type
Unknown
Shape & HBR
Box, 0.2 m
Radar Cross Section
0.100 m², Medium (>0.1 m² and < 1m²)

Expand to show TLE details & history
Last TLE update: 5 hours ago

TLE from 5 hours ago
0 OBJECT M
1 57177U 23091M   26257.13335802  .00005614  00000-0  24933-3 0  9999
2 57177  97.4997 315.8350 0013530 159.4627 200.7155 15.21872806177527
Epoch: 2026-09-14T03:12Z
TLE epoch observation values (Epoch: 2026-09-14T03:12:02.132Z)
Latitude
-0.00011°
Longitude
-85.2919°
Altitude
511.99 km
Speed
7.603 km/s
True Right ascension
21h 03m 20s
True Declination
0° 00' 00"
Sunlit
Object was in full shadow at epoch
Visualization orbit readout
Latitude
Unknown
Longitude
Unknown
Altitude
Unknown
Speed
Unknown
Apparent Right ascension
Unknown
Apparent Declination
Unknown
Sunlit
N/A
Visualization observer readout
Local Sidereal Time
00:23:33
Azimuth
Unknown
Elevation
Unknown
Doppler factor
Unknown
Orbital elements
Apogee altitude
506.462 km
Perigee altitude
487.857 km
Semi-major axis
6,875.296 km
Eccentricity
0.00135
Inclination
97.4997°
RAAN
315.835°
Arg. of periapsis
159.4627°
True anomaly
200.66074°
Mean anomaly
200.7155°
Eccentric anomaly
200.68811°
Mean motion
3.8072 °/min
Orbital period
94.56 mins
BSTAR
0.00024933
Loading maneuver chart data...
Computing Atmospheric mass density...
Loading historical data...
Loading historical data...
Loading historical data...
Loading historical data...
Loading historical data...
Loading historical data...
Loading historical data...

Documentation

Showing up to 5 results
|